SCP
0 0 0 0 0 0 0 0 0 0 0 0 0 0 0 0 0 0 0 0 0 0 0 0 0 0 0 0 0 0 0 0 0 0 0 0 0 0 0 0 0 0 0 0
0 0 0 0 0 0 0 0 0 0 0 0 0 0 0 0 0 0 0 0 0 0 0 0 0 0 0 0 0 0 0 0 0 0 0 0 0 0 0 0 0 0 0 0
0 0 0 0 0 0 0 0 0 0 0 0 0 0 0 0 0 0 0 0 0 0 0 0 0 0 0 0 0 0 0 0 0 0 0 0 0 0 0 0 0 0 0 0
0 0 0 0 0 0 0 0 0 0 0 0 0 0 0 0 0 0 0 0 0 0 0 0 0 0 0 0 0 0 0 0 0 0 0 0 0 0 0 0 0 0 0 0
0 0 0 0 0 0 0 0 0 0 0 0 0 0 0 0 0 0 0 0 0 0 0 0 0 0 0 0 0 0 0 0 0 0 0 0 0 0 0 0 0 0 0 0
0 0 0 0 0 0 0 0 0 0 0 0 0 0 0 0 0 0 0 0 0 0 0 0 0 0 0 0 0 0 0 0 0 0 0 0 0 0 0 0 0 0 0 0
0 0 0 0 0 0 0 0 0 0 0 0 0 0 0 0 0 0 0 0 0 0 0 0 0 0 0 0 0 0 0 0 0 0 0 0 0 0 0 0 0 0 0 0
0 0 0 0 0 0 0 0 0 0 0 0 0 0 0 0 0 0 0 0 0 0 0 0 0 0 0 0 0 0 0 0 0 0 0 0 0 0 0 0 0 0 0 0
0 0 0 0 0 0 0 0 0 0 0 0 0 0 0 0 0 0 0 0 0 0 0 0 0 0 0 0 0 0 0 0 0 0 0 0 0 0 0 0 0 0 0 0
0 0 0 0 0 0 0 0 0 0 0 0 0 0 0 0 0 0 0 0 0 0 0 0 0 0 0 0 0 0 0 0 0 0 0 0 0 0 0 0 0 0 0 0
0 0 0 0 0 0 0 0 0 0 0 0 0 0 0 0 0 0 0 0 0 0 0 0 0 0 0 0 0 0 0 0 0 0 0 0 0 0 0 0 0 0 0 0
0 0 0 0 0 0 0 0 0 0 0 0 0 0 0 0 0 0 0 0 0 0 0 0 0 0 0 0 0 0 0 0 0 0 0 0 0 0 0 0 0 0 0 0
0 0 0 0 0 0 0 0 0 0 0 0 0 0 0 0 0 0 0 0 0 0 0 0 0 0 0 0 0 0 0 0 0 0 0 0 0 0 0 0 0 0 0 0
0 0 0 0 0 0 0 0 0 0 0 0 0 0 0 0 0 0 0 0 0 0 0 0 0 0 0 0 0 0 0 0 0 0 0 0 0 0 0 0 0 0 0 0
0 0 0 0 0 0 0 0 0 0 0 0 0 0 0 0 0 0 0 0 0 0 0 0 0 0 0 0 0 0 0 0 0 0 0 0 0 0 0 0 0 0 0 0
0 0 0 0 0 0 0 0 0 0 0 0 0 0 0 0 0 0 0 0 0 0 0 0 0 0 0 0 0 0 0 0 0 0 0 0 0 0 0 0 0 0 0 0
0 0 0 0 0 0 0 0 0 0 0 0 0 0 0 0 0 0 0 0 0 0 0 0 0 0 0 0 0 0 0 0 0 0 0 0 0 0 0 0 0 0 0 0
0 0 0 0 0 0 0 0 0 0 0 0 0 0 0 0 0 0 0 0 0 0 0 0 0 0 0 0 0 0 0 0 0 0 0 0 0 0 0 0 0 0 0 0
0 0 0 0 0 0 0 0 0 0 0 0 0 0 0 0 0 0 0 0 0 0 0 0 0 0 0 0 0 0 0 0 0 0 0 0 0 0 0 0 0 0 0 0
0 0 0 0 0 0 0 0 0 0 0 0 0 0 0 0 0 0 0 0 0 0 0 0 0 0 0 0 0 0 0 0 0 0 0 0 0 0 0 0 0 0 0 0
0 0 0 0 0 0 0 0 0 0 0 0 0 0 0 0 0 0 0 0 0 0 0 0 0 0 0 0 0 0 0 0 0 0 0 0 0 0 0 0 0 0 0 0
0 0 0 0 0 0 0 0 0 0 0 0 0 0 0 0 0 0 0 0 0 0 0 0 0 0 0 0 0 0 0 0 0 0 0 0 0 0 0 0 0 0 0 0
0 0 0 0 0 0 0 0 0 0 0 0 0 0 0 0 0 0 0 0 0 0 0 0 0 0 0 0 0 0 0 0 0 0 0 0 0 0 0 0 0 0 0 0
0 0 0 0 0 0 0 0 0 0 0 0 0 0 0 0 0 0 0 0 0 0 0 0 0 0 0 0 0 0 0 0 0 0 0 0 0 0 0 0 0 0 0 0
0 0 0 0 0 0 0 0 0 0 0 0 0 0 0 0 0 0 0 0 0 0 0 0 0 0 0 0 0 0 0 0 0 0 0 0 0 0 0 0 0 0 0 0
0 0 0 0 0 0 0 0 0 0 0 0 0 0 0 0 0 0 0 0 0 0 0 0 0 0 0 0 0 0 0 0 0 0 0 0 0 0 0 0 0 0 0 0
0 0 0 0 0 0 0 0 0 0 0 0 0 0 0 0 0 0 0 0 0 0 0 0 0 0 0 0 0 0 0 0 0 0 0 0 0 0 0 0 0 0 0 0
Wind_Speed
8 7 7 7 7 7 8 7 6 5 3 2 2 2 3 3 3 3 2 2 2 1 1 2 3 4 4 4 4 4 4 4 4 3 3 2 2 2 1 1 1 1 1 1
10 9 8 8 8 7 7 7 7 6 4 2 2 2 3 3 3 2 2 1 1 1 1 1 2 3 3 3 3 4 4 4 3 3 2 2 2 2 2 2 1 1 1 1
8 7 9 8 6 6 5 4 4 4 3 3 3 3 3 3 3 3 2 1 1 0 0 0 1 2 3 2 2 3 3 3 3 3 2 2 2 2 2 2 2 1 1 1
7 8 9 1 2 2 2 2 2 2 4 4 3 3 4 4 3 2 2 2 1 1 1 1 1 0 1 2 2 2 2 2 2 2 3 2 2 2 2 2 2 2 2 2
6 7 6 1 1 2 2 1 3 3 3 4 4 2 4 5 5 3 3 2 1 1 1 1 1 1 1 1 2 2 2 2 2 2 3 3 3 3 3 2 2 2 2 3
6 7 5 1 3 3 3 1 4 3 3 4 4 2 2 4 4 3 3 2 2 2 1 1 1 1 0 1 1 1 1 1 2 2 2 3 3 3 2 2 3 2 2 2
7 7 2 3 4 3 1 2 4 4 4 4 3 3 3 4 4 3 3 3 2 2 2 2 2 1 1 1 1 1 1 1 1 2 2 2 2 2 2 2 2 2 3 3
5 6 2 3 2 2 3 4 4 5 5 5 5 5 5 4 4 3 3 2 2 2 2 2 2 2 2 2 2 1 0 0 1 2 2 2 2 2 2 2 2 3 2 2
2 0 3 3 3 3 4 4 5 5 5 5 4 4 4 3 3 3 3 3 3 2 2 3 3 2 3 2 1 0 1 1 2 2 2 1 2 2 2 2 2 2 2 2
2 1 2 3 4 5 4 4 4 4 4 4 4 3 3 3 2 3 2 2 2 2 2 2 2 2 2 2 1 1 1 1 1 1 1 1 1 1 1 1 2 1 2 2
3 1 2 2 3 4 4 4 4 4 3 3 3 3 3 2 2 2 2 2 2 1 1 2 2 2 2 2 1 1 1 1 1 1 1 1 1 2 2 1 2 2 2 2
3 1 0 0 2 4 3 3 3 4 4 4 3 3 3 2 2 2 3 3 2 2 2 2 2 2 2 2 1 2 2 2 1 1 1 1 0 1 3 2 2 2 3 3
3 3 2 1 2 2 3 3 4 3 3 4 4 3 3 3 3 3 3 3 3 3 3 3 2 2 3 2 2 2 2 2 1 1 1 1 1 1 2 3 3 3 4 4
2 2 2 2 2 2 3 3 3 3 3 4 4 4 3 3 3 3 3 3 3 3 3 3 3 3 3 2 2 3 3 2 2 1 1 1 1 2 2 2 2 2 3 5
3 2 1 1 1 1 2 2 3 3 4 4 4 4 4 3 3 3 3 3 3 3 4 3 3 3 3 3 2 3 2 1 1 1 1 1 2 2 2 2 2 2 2 2
2 1 1 1 2 1 1 1 2 2 3 3 3 4 4 4 3 3 3 3 3 3 4 4 3 3 3 2 3 2 1 2 2 1 1 1 1 1 2 2 2 2 2 1
3 3 2 2 2 1 1 2 2 2 2 2 3 3 3 3 3 3 3 3 3 3 3 3 3 3 3 3 2 2 1 1 3 2 1 1 1 2 2 2 2 2 2 2
1 1 1 1 1 1 1 2 2 2 2 2 2 3 3 3 3 4 4 3 3 3 3 3 4 3 3 3 2 2 1 1 1 1 1 1 2 2 2 2 2 2 2 2
0 0 0 1 1 1 1 1 2 2 2 2 2 2 3 3 3 4 4 3 3 3 3 3 6 3 2 2 3 1 1 1 1 2 2 3 2 2 2 2 2 2 2 2
1 1 1 1 1 1 2 2 2 2 2 2 2 3 3 3 3 3 3 3 2 2 3 4 3 2 2 2 3 2 2 2 2 2 2 2 2 2 2 2 2 2 2 2
1 1 0 1 1 1 2 2 2 2 2 2 2 3 3 3 3 3 3 3 2 3 3 4 2 2 2 3 4 2 2 2 2 2 2 2 2 2 2 3 3 3 3 2
1 1 1 1 1 2 2 2 2 2 2 2 3 3 3 3 3 3 3 2 2 4 3 2 2 3 5 5 2 2 2 2 2 2 2 2 2 2 2 3 3 3 3 2
2 2 2 2 2 2 2 2 2 2 2 2 3 3 3 2 2 2 3 2 2 4 3 2 4 6 6 3 2 2 2 2 2 2 2 2 2 2 3 3 3 3 2 2
2 2 2 2 2 3 3 2 2 2 2 2 2 3 2 2 2 1 1 3 4 5 3 3 5 6 5 2 2 2 2 2 2 2 2 2 2 3 3 3 2 2 3 3
2 3 3 2 3 2 2 2 2 2 2 2 2 2 1 1 2 2 1 1 3 3 2 3 5 5 3 2 2 2 2 2 3 3 2 2 3 3 3 3 3 3 3 3
2 2 2 2 2 2 1 2 2 2 2 2 2 1 2 1 2 2 1 1 1 2 2 2 2 3 2 2 2 2 2 2 3 2 2 3 3 3 3 3 4 3 3 3
3 2 2 2 2 1 1 1 2 2 2 2 2 2 2 2 2 2 2 1 1 1 2 1 1 2 2 2 2 2 2 2 2 2 2 2 3 3 3 3 3 3 3 3
Wind_Direction
272 264 257 255 254 253 261 274 281 297 302 360 39 53 77 79 101 100 88 80 87 100 125 157 165 175 181 184 185 181 179 191 196 192 187 174 171 181 163 147 186 217 217 257
266 261 255 256 259 252 253 272 279 289 302 26 29 39 67 73 72 84 94 84 96 104 101 143 184 185 188 186 188 184 184 186 184 184 179 173 177 190 179 179 204 230 227 220
272 263 268 258 257 251 245 265 281 293 339 26 22 34 51 73 75 57 52 69 77 117 83 296 262 200 183 185 190 190 180 174 169 176 180 190 193 190 189 196 195 215 239 224
269 265 257 251 349 289 247 284 327 355 28 18 28 37 64 72 69 56 48 33 22 11 16 321 311 1 154 160 173 186 173 168 170 181 184 190 196 203 212 212 202 208 222 226
263 264 254 236 351 325 273 284 7 14 28 18 17 54 71 65 60 56 51 31 10 7 346 319 326 353 47 162 158 185 178 176 183 191 190 194 205 215 216 208 212 221 215 222
259 264 264 5 5 333 291 200 18 20 17 17 15 357 16 42 45 46 47 38 14 360 357 347 345 357 253 246 188 195 192 204 202 200 198 202 214 219 216 209 217 222 226 231
259 264 269 14 358 348 280 11 23 24 31 34 26 20 33 46 46 41 45 41 24 10 18 4 352 345 301 276 257 221 200 204 201 206 209 208 213 214 213 213 220 226 226 229
253 258 260 28 8 25 21 25 26 30 36 34 34 40 34 39 39 49 43 39 40 30 19 13 6 339 306 295 308 339 61 231 230 225 233 222 193 213 226 223 227 234 232 237
285 330 66 68 48 34 24 27 27 30 35 28 26 29 25 33 31 43 43 40 43 42 21 12 11 352 323 323 328 311 246 247 251 258 248 230 212 206 210 220 227 239 240 235
251 156 86 54 40 40 34 33 30 29 30 18 9 13 13 18 27 30 28 28 32 35 19 0 347 337 311 314 313 279 264 263 262 261 305 302 288 251 231 240 237 237 246 249
271 154 92 48 28 34 35 35 30 27 19 8 4 357 357 359 25 25 18 15 20 21 7 340 336 332 340 340 329 304 280 274 276 277 266 298 322 316 279 264 232 226 235 239
299 335 319 78 33 34 28 26 23 14 5 358 356 350 352 356 20 28 12 2 3 5 353 336 335 335 345 354 340 300 286 281 272 249 247 245 242 329 336 293 280 242 236 240
320 359 4 3 30 26 5 3 8 2 352 346 353 2 6 9 19 22 8 359 354 348 336 327 331 342 350 352 348 320 302 296 286 265 254 248 237 237 279 309 312 290 263 256
347 350 333 350 359 6 349 348 352 352 360 2 5 7 4 6 11 8 356 348 344 341 338 336 337 339 345 350 342 325 317 302 294 264 250 252 252 254 250 255 276 291 282 256
291 305 312 346 354 346 347 349 345 356 6 4 6 2 355 358 359 351 344 343 347 347 339 334 335 337 351 351 336 321 321 318 309 297 269 264 264 260 263 269 275 276 274 265
272 297 304 289 281 303 320 317 323 340 355 357 356 350 346 344 343 340 337 341 343 337 332 332 332 339 354 343 325 316 325 330 338 316 285 283 287 289 288 292 298 294 291 283
236 238 240 256 266 282 309 322 326 333 338 343 341 337 332 331 331 331 333 337 330 325 329 341 344 350 350 341 327 322 329 315 321 321 314 307 301 286 281 280 284 287 287 292
250 259 274 264 262 273 288 310 326 326 323 322 328 330 325 325 324 325 327 329 325 323 341 354 350 346 352 351 335 324 318 311 308 303 301 290 287 284 290 285 279 281 287 289
216 65 39 16 2 326 296 303 316 316 317 323 321 315 313 315 316 319 323 322 319 314 327 344 336 339 337 329 331 329 332 321 309 302 301 300 296 300 302 302 305 304 300 298
125 98 63 13 347 319 299 300 309 310 314 318 317 317 317 317 320 321 319 315 319 322 332 339 326 323 330 330 340 331 325 313 300 294 294 294 298 304 303 300 299 299 300 297
185 190 215 276 293 298 301 302 299 300 312 313 304 302 304 306 313 316 307 303 320 346 340 328 329 335 337 337 334 327 318 305 295 290 291 292 291 288 290 296 300 296 294 294
215 223 229 242 254 268 281 289 288 291 301 302 302 304 305 305 312 314 312 311 330 343 336 325 330 337 336 331 312 310 313 311 308 311 312 310 303 298 297 298 296 297 299 299
231 241 250 258 265 280 283 278 282 292 295 299 301 302 300 300 301 300 302 322 343 334 327 325 331 332 329 325 312 306 308 310 311 313 313 309 305 303 299 298 299 300 298 297
234 241 253 267 274 272 271 280 295 293 286 290 291 295 300 301 301 303 319 336 340 331 324 328 334 333 333 324 313 315 318 316 315 313 313 313 311 307 304 300 302 306 303 300
253 245 243 248 260 269 280 288 290 290 290 288 290 297 300 296 297 308 317 318 325 326 322 327 330 329 328 314 315 315 314 313 315 315 313 314 310 306 305 306 306 301 296 294
266 262 260 264 265 261 264 272 280 285 287 288 293 305 312 314 311 305 293 295 298 313 312 302 307 319 311 312 316 317 314 313 309 309 311 314 311 309 308 310 308 303 300 297
254 260 255 249 250 248 250 259 272 278 281 281 287 296 299 299 294 289 288 289 286 280 283 296 309 311 310 311 310 309 310 313 311 307 304 303 304 303 303 303 301 298 296 295